When you browse on this site, cookies collect data to enhance your experience and personalize the content and advertising you see.
Visit our Privacy Policy to learn more. By continuing to use the site, you agree to this use of cookies and data.
  • In Spain
  • List of Countries
  • For 7 days
  • Water Temperature
  • Satellite Maps
  • Weather Map
  • Weather Widgets
  • user-avatar
    Login

    Hourly Weather Calmeca

    Today, 22 April, Monday

    Time Temperature Precipitation Wind Pressure Humidity
    00:00 +23°C° 0 mm 0 mps 651 mmHg 41%
    01:00 +22°C° 0 mm 0 mps 650 mmHg 44%
    02:00 +22°C° 0 mm 0 mps 650 mmHg 46%
    03:00 +21°C° 0 mm 0 mps 650 mmHg 48%
    04:00 +21°C° 0 mm 0 mps 650 mmHg 49%
    05:00 +20°C° 0 mm 0 mps 650 mmHg 50%
    06:00 +22°C° 0 mm 0 mps 650 mmHg 45%
    07:00 +27°C° 0 mm 1 mps 651 mmHg 39%
    08:00 +29°C° 0 mm 1 mps 652 mmHg 34%
    09:00 +31°C° 0 mm 1 mps 652 mmHg 30%
    10:00 +34°C° 0 mm 2 mps 652 mmHg 26%
    11:00 +35°C° 0 mm 2 mps 652 mmHg 22%
    12:00 +36°C° 0 mm 2 mps 652 mmHg 20%
    13:00 +37°C° 0 mm 2 mps 651 mmHg 18%
    14:00 +38°C° 0 mm 2 mps 651 mmHg 16%
    15:00 +37°C° 0 mm 2 mps 651 mmHg 17%
    16:00 +36°C° 0 mm 2 mps 650 mmHg 17%
    17:00 +35°C° 0 mm 1 mps 650 mmHg 17%
    18:00 +33°C° 0 mm 1 mps 650 mmHg 21%
    19:00 +31°C° 0 mm 1 mps 650 mmHg 24%
    20:00 +29°C° 0 mm 1 mps 650 mmHg 27%
    21:00 +28°C° 0 mm 1 mps 650 mmHg 30%
    22:00 +27°C° 0 mm 1 mps 650 mmHg 33%
    23:00 +26°C° 0 mm 1 mps 650 mmHg 36%

    Tomorrow, 23 April, Tuesday

    Time Temperature Precipitation Wind Pressure Humidity
    00:00 +25°C° 0 mm 1 mps 650 mmHg 38%
    01:00 +23°C° 0 mm 0 mps 649 mmHg 41%
    02:00 +22°C° 0 mm 0 mps 649 mmHg 43%
    03:00 +21°C° 0 mm 0 mps 649 mmHg 45%
    04:00 +21°C° 0 mm 0 mps 649 mmHg 47%
    05:00 +20°C° 0 mm 0 mps 649 mmHg 49%
    06:00 +23°C° 0 mm 0 mps 650 mmHg 44%
    07:00 +27°C° 0 mm 1 mps 650 mmHg 40%
    08:00 +29°C° 0 mm 1 mps 651 mmHg 35%
    09:00 +31°C° 0 mm 1 mps 651 mmHg 31%
    10:00 +32°C° 0 mm 2 mps 651 mmHg 28%
    11:00 +35°C° 0 mm 2 mps 651 mmHg 24%
    12:00 +36°C° 0 mm 2 mps 651 mmHg 23%
    13:00 +36°C° 0 mm 2 mps 650 mmHg 21%
    14:00 +37°C° 0 mm 2 mps 650 mmHg 19%
    15:00 +36°C° 0 mm 2 mps 649 mmHg 19%
    16:00 +36°C° 0 mm 2 mps 649 mmHg 19%
    17:00 +35°C° 0 mm 2 mps 649 mmHg 19%
    18:00 +32°C° 0 mm 2 mps 649 mmHg 21%
    19:00 +30°C° 0 mm 2 mps 649 mmHg 24%
    20:00 +28°C° 0 mm 2 mps 649 mmHg 26%
    21:00 +27°C° 0 mm 1 mps 650 mmHg 28%
    22:00 +27°C° 0 mm 1 mps 650 mmHg 29%
    23:00 +26°C° 0 mm 1 mps 650 mmHg 31%

    Day after tomorrow, 24 April, Wednesday

    Time Temperature Precipitation Wind Pressure Humidity
    00:00 +25°C° 0 mm 1 mps 649 mmHg 33%
    01:00 +25°C° 0 mm 1 mps 649 mmHg 36%
    02:00 +24°C° 0 mm 1 mps 648 mmHg 38%
    03:00 +23°C° 0 mm 1 mps 648 mmHg 39%
    04:00 +23°C° 0 mm 1 mps 648 mmHg 41%
    05:00 +22°C° 0 mm 1 mps 648 mmHg 42%
    06:00 +25°C° 0 mm 1 mps 649 mmHg 38%
    07:00 +27°C° 0 mm 1 mps 650 mmHg 34%
    08:00 +29°C° 0 mm 1 mps 651 mmHg 29%
    09:00 +31°C° 0 mm 2 mps 651 mmHg 27%
    10:00 +32°C° 0 mm 2 mps 651 mmHg 25%
    11:00 +35°C° 0 mm 3 mps 651 mmHg 22%
    12:00 +36°C° 0 mm 3 mps 650 mmHg 21%
    13:00 +36°C° 0 mm 3 mps 649 mmHg 19%
    14:00 +37°C° 0 mm 4 mps 649 mmHg 17%
    15:00 +36°C° 0 mm 4 mps 649 mmHg 18%
    16:00 +35°C° 0 mm 4 mps 648 mmHg 18%
    17:00 +35°C° 0 mm 4 mps 648 mmHg 19%
    18:00 +33°C° 0 mm 3 mps 648 mmHg 22%
    19:00 +30°C° 0 mm 2 mps 648 mmHg 25%
    20:00 +28°C° 0 mm 2 mps 649 mmHg 28%
    21:00 +27°C° 0 mm 1 mps 649 mmHg 29%
    22:00 +26°C° 0 mm 1 mps 649 mmHg 30%
    23:00 +25°C° 0 mm 1 mps 649 mmHg 31%

    25 April, Thursday

    Time Temperature Precipitation Wind Pressure Humidity
    00:00 +25°C° 0 mm 1 mps 648 mmHg 33%
    01:00 +24°C° 0 mm 1 mps 648 mmHg 35%
    02:00 +23°C° 0 mm 1 mps 647 mmHg 37%
    03:00 +22°C° 0 mm 1 mps 648 mmHg 39%
    04:00 +20°C° 0 mm 0 mps 648 mmHg 40%
    05:00 +19°C° 0 mm 0 mps 648 mmHg 42%
    06:00 +24°C° 0 mm 1 mps 649 mmHg 37%
    07:00 +26°C° 0 mm 1 mps 650 mmHg 32%
    08:00 +29°C° 0 mm 1 mps 651 mmHg 27%
    09:00 +31°C° 0 mm 1 mps 651 mmHg 24%
    10:00 +32°C° 0 mm 2 mps 651 mmHg 20%
    11:00 +35°C° 0 mm 2 mps 651 mmHg 16%
    12:00 +36°C° 0 mm 3 mps 651 mmHg 14%
    13:00 +36°C° 0 mm 3 mps 650 mmHg 12%
    14:00 +37°C° 0 mm 3 mps 650 mmHg 11%
    15:00 +37°C° 0 mm 3 mps 650 mmHg 11%
    16:00 +36°C° 0 mm 3 mps 650 mmHg 11%
    17:00 +35°C° 0 mm 3 mps 650 mmHg 12%
    18:00 +32°C° 0 mm 2 mps 650 mmHg 14%
    19:00 +29°C° 0 mm 2 mps 650 mmHg 16%
    20:00 +27°C° 0 mm 2 mps 651 mmHg 19%
    21:00 +26°C° 0 mm 1 mps 651 mmHg 18%
    22:00 +26°C° 0 mm 1 mps 651 mmHg 18%
    23:00 +25°C° 0 mm 1 mps 651 mmHg 18%

    26 April, Friday

    Time Temperature Precipitation Wind Pressure Humidity
    00:00 +24°C° 0 mm 1 mps 650 mmHg 20%
    01:00 +24°C° 0 mm 1 mps 650 mmHg 22%
    02:00 +23°C° 0 mm 1 mps 650 mmHg 24%
    03:00 +23°C° 0 mm 1 mps 650 mmHg 28%
    04:00 +22°C° 0 mm 1 mps 650 mmHg 33%
    05:00 +22°C° 0 mm 1 mps 650 mmHg 38%
    06:00 +24°C° 0 mm 1 mps 651 mmHg 37%
    07:00 +27°C° 0 mm 1 mps 652 mmHg 36%
    08:00 +29°C° 0 mm 2 mps 653 mmHg 35%
    09:00 +31°C° 0 mm 2 mps 653 mmHg 31%
    10:00 +34°C° 0 mm 2 mps 653 mmHg 27%
    11:00 +36°C° 0 mm 2 mps 653 mmHg 23%
    12:00 +37°C° 0 mm 2 mps 653 mmHg 21%
    13:00 +38°C° 0 mm 2 mps 652 mmHg 19%
    14:00 +39°C° 0 mm 1 mps 652 mmHg 17%
    15:00 +38°C° 0 mm 2 mps 652 mmHg 18%
    16:00 +36°C° 0 mm 2 mps 651 mmHg 18%
    17:00 +35°C° 0 mm 2 mps 651 mmHg 19%
    18:00 +34°C° 0 mm 2 mps 652 mmHg 23%
    19:00 +31°C° 0 mm 3 mps 652 mmHg 28%
    20:00 +29°C° 0 mm 3 mps 652 mmHg 32%
    21:00 +28°C° 0 mm 2 mps 652 mmHg 35%
    22:00 +27°C° 0 mm 2 mps 652 mmHg 37%
    23:00 +26°C° 0 mm 1 mps 652 mmHg 40%

    27 April, Saturday

    Time Temperature Precipitation Wind Pressure Humidity
    00:00 +25°C° 0 mm 1 mps 651 mmHg 41%
    01:00 +25°C° 0 mm 1 mps 650 mmHg 43%
    02:00 +24°C° 0 mm 1 mps 650 mmHg 45%
    03:00 +24°C° 0 mm 1 mps 650 mmHg 46%
    04:00 +23°C° 0 mm 1 mps 650 mmHg 47%
    05:00 +23°C° 0 mm 1 mps 650 mmHg 49%
    06:00 +25°C° 0 mm 1 mps 651 mmHg 43%
    07:00 +27°C° 0 mm 1 mps 652 mmHg 38%
    08:00 +30°C° 0 mm 1 mps 652 mmHg 33%
    09:00 +31°C° 0 mm 1 mps 652 mmHg 29%
    10:00 +34°C° 0 mm 2 mps 652 mmHg 25%
    11:00 +36°C° 0 mm 2 mps 652 mmHg 22%
    12:00 +37°C° 0 mm 2 mps 651 mmHg 21%
    13:00 +37°C° 0 mm 2 mps 651 mmHg 19%
    14:00 +38°C° 0 mm 3 mps 650 mmHg 18%
    15:00 +37°C° 0 mm 3 mps 650 mmHg 19%
    16:00 +36°C° 0 mm 2 mps 650 mmHg 20%
    17:00 +36°C° 0 mm 2 mps 649 mmHg 21%
    18:00 +34°C° 0 mm 2 mps 650 mmHg 22%
    19:00 +32°C° 0 mm 2 mps 651 mmHg 23%
    20:00 +31°C° 0 mm 1 mps 651 mmHg 24%
    21:00 +31°C° 0 mm 1 mps 651 mmHg 27%
    22:00 +30°C° 0 mm 2 mps 651 mmHg 29%
    23:00 +29°C° 0 mm 2 mps 651 mmHg 32%
    Show more